contact:dominique.lefevre@mio.osupytheas.fr, maurice.libes@osupytheas.fr, didier.mallarino@osupytheas.fr
Project:EMSO http://www.emso-fr.org/EMSO-France
Depth: 2436.0 m
Title:EMSO Ligure Ouest : Data MII capteur MICROCAT
DateTime_Computer,Latitude,Longitude,Temperature,Conductivity,Pressure,DateTime_Instrument
DateTime_Computer,Latitude,Longitude,degC,S m-1,dbar,DateTime_Instrument
2022-09-29T00:02:13Z,42.805,6.029,13.3057,4.60107,2470.52,2022-9-29T02:04:07Z
2022-09-29T00:05:16Z,42.805,6.029,13.3056,4.60123,2470.53,2022-9-29T02:07:10Z
2022-09-29T00:08:19Z,42.805,6.029,13.3063,4.60110,2470.52,2022-9-29T02:10:13Z
2022-09-29T00:11:22Z,42.805,6.029,13.3042,4.60089,2470.483,2022-9-29T02:13:16Z
2022-09-29T00:14:26Z,42.805,6.029,13.3062,4.60092,2470.52,2022-9-29T02:16:19Z
2022-09-29T00:17:29Z,42.805,6.029,13.3037,4.60087,2470.46,2022-9-29T02:19:22Z
2022-09-29T00:20:32Z,42.805,6.029,13.3032,4.60089,2470.474,2022-9-29T02:22:25Z
2022-09-29T00:23:35Z,42.805,6.029,13.3031,4.60092,2470.483,2022-9-29T02:25:29Z
2022-09-29T00:26:38Z,42.805,6.029,13.3029,4.60082,2470.497,2022-9-29T02:28:32Z
2022-09-29T00:29:41Z,42.805,6.029,13.3035,4.60079,2470.52,2022-9-29T02:31:35Z
2022-09-29T00:32:44Z,42.805,6.029,13.3038,4.60072,2470.497,2022-9-29T02:34:38Z
2022-09-29T00:35:47Z,42.805,6.029,13.3049,4.60079,2470.497,2022-9-29T02:37:41Z
2022-09-29T00:38:51Z,42.805,6.029,13.3035,4.60080,2470.483,2022-9-29T02:40:44Z
2022-09-29T00:41:54Z,42.805,6.029,13.3032,4.60067,2470.474,2022-9-29T02:43:47Z
2022-09-29T00:44:57Z,42.805,6.029,13.3051,4.60066,2470.46,2022-9-29T02:46:50Z
2022-09-29T00:48:00Z,42.805,6.029,13.3039,4.60069,2470.46,2022-9-29T02:49:54Z
2022-09-29T00:51:03Z,42.805,6.029,13.3041,4.60084,2470.46,2022-9-29T02:52:57Z
2022-09-29T00:54:06Z,42.805,6.029,13.3047,4.60073,2470.483,2022-9-29T02:56:00Z
2022-09-29T00:57:09Z,42.805,6.029,13.3059,4.60086,2470.437,2022-9-29T02:59:03Z
2022-09-29T01:00:12Z,42.805,6.029,13.3067,4.60097,2470.474,2022-9-29T03:02:06Z
2022-09-29T01:03:15Z,42.805,6.029,13.3045,4.60099,2470.46,2022-9-29T03:05:09Z
2022-09-29T01:06:19Z,42.805,6.029,13.3056,4.60076,2470.437,2022-9-29T03:08:12Z
2022-09-29T01:09:22Z,42.805,6.029,13.3070,4.60099,2470.497,2022-9-29T03:11:15Z
2022-09-29T01:12:25Z,42.805,6.029,13.3041,4.60088,2470.437,2022-9-29T03:14:18Z
2022-09-29T01:15:28Z,42.805,6.029,13.3039,4.60072,2470.437,2022-9-29T03:17:22Z
2022-09-29T01:18:31Z,42.805,6.029,13.3048,4.60072,2470.474,2022-9-29T03:20:25Z
2022-09-29T01:21:34Z,42.805,6.029,13.3029,4.60085,2470.413,2022-9-29T03:23:28Z
2022-09-29T01:24:37Z,42.805,6.029,13.3054,4.60080,2470.413,2022-9-29T03:26:31Z
2022-09-29T01:27:40Z,42.805,6.029,13.3048,4.60077,2470.437,2022-9-29T03:29:34Z
2022-09-29T01:30:44Z,42.805,6.029,13.3031,4.60084,2470.46,2022-9-29T03:32:37Z
2022-09-29T01:33:47Z,42.805,6.029,13.3046,4.60072,2470.437,2022-9-29T03:35:40Z
2022-09-29T01:36:50Z,42.805,6.029,13.3056,4.60087,2470.413,2022-9-29T03:38:43Z
2022-09-29T01:39:53Z,42.805,6.029,13.3059,4.60077,2470.413,2022-9-29T03:41:47Z
2022-09-29T01:42:56Z,42.805,6.029,13.3048,4.60077,2470.45,2022-9-29T03:44:50Z
2022-09-29T01:45:59Z,42.805,6.029,13.3047,4.60087,2470.413,2022-9-29T03:47:53Z
2022-09-29T01:49:02Z,42.805,6.029,13.3056,4.60096,2470.404,2022-9-29T03:50:56Z
2022-09-29T01:52:05Z,42.805,6.029,13.3057,4.60092,2470.427,2022-9-29T03:53:59Z
2022-09-29T01:55:09Z,42.805,6.029,13.3058,4.60085,2470.437,2022-9-29T03:57:02Z
2022-09-29T01:58:12Z,42.805,6.029,13.3058,4.60067,2470.38,2022-9-29T04:00:05Z
2022-09-29T02:01:15Z,42.805,6.029,13.3038,4.60064,2470.427,2022-9-29T04:03:08Z
2022-09-29T02:04:18Z,42.805,6.029,13.3039,4.60079,2470.39,2022-9-29T04:06:12Z
2022-09-29T02:07:21Z,42.805,6.029,13.3043,4.60089,2470.437,2022-9-29T04:09:15Z
2022-09-29T02:10:24Z,42.805,6.029,13.3037,4.60078,2470.404,2022-9-29T04:12:18Z
2022-09-29T02:13:27Z,42.805,6.029,13.3033,4.60078,2470.39,2022-9-29T04:15:21Z
2022-09-29T02:16:30Z,42.805,6.029,13.3041,4.60077,2470.413,2022-9-29T04:18:24Z
2022-09-29T02:19:33Z,42.805,6.029,13.3046,4.60075,2470.39,2022-9-29T04:21:27Z
2022-09-29T02:22:37Z,42.805,6.029,13.3044,4.60079,2470.39,2022-9-29T04:24:30Z
2022-09-29T02:25:40Z,42.805,6.029,13.3036,4.60080,2470.404,2022-9-29T04:27:33Z
2022-09-29T02:28:43Z,42.805,6.029,13.3036,4.60074,2470.39,2022-9-29T04:30:37Z
2022-09-29T02:31:46Z,42.805,6.029,13.3035,4.60078,2470.366,2022-9-29T04:33:40Z
2022-09-29T02:34:49Z,42.805,6.029,13.3043,4.60079,2470.404,2022-9-29T04:36:43Z
2022-09-29T02:37:52Z,42.805,6.029,13.3034,4.60074,2470.39,2022-9-29T04:39:46Z
2022-09-29T02:40:55Z,42.805,6.029,13.3043,4.60079,2470.427,2022-9-29T04:42:49Z
2022-09-29T02:43:58Z,42.805,6.029,13.3042,4.60076,2470.366,2022-9-29T04:45:52Z
2022-09-29T02:47:02Z,42.805,6.029,13.3040,4.60070,2470.427,2022-9-29T04:48:55Z
2022-09-29T02:50:05Z,42.805,6.029,13.3044,4.60079,2470.38,2022-9-29T04:51:58Z
2022-09-29T02:53:08Z,42.805,6.029,13.3048,4.60074,2470.366,2022-9-29T04:55:01Z
2022-09-29T02:56:11Z,42.805,6.029,13.3028,4.60073,2470.366,2022-9-29T04:58:05Z
2022-09-29T02:59:14Z,42.805,6.029,13.3043,4.60081,2470.39,2022-9-29T05:01:08Z
2022-09-29T03:02:17Z,42.805,6.029,13.3044,4.60074,2470.404,2022-9-29T05:04:11Z
2022-09-29T03:05:20Z,42.805,6.029,13.3046,4.60080,2470.39,2022-9-29T05:07:14Z
2022-09-29T03:08:23Z,42.805,6.029,13.3041,4.60079,2470.39,2022-9-29T05:10:17Z
2022-09-29T03:11:27Z,42.805,6.029,13.3050,4.60081,2470.404,2022-9-29T05:13:20Z
2022-09-29T03:14:30Z,42.805,6.029,13.3036,4.60075,2470.366,2022-9-29T05:16:23Z
2022-09-29T03:17:33Z,42.805,6.029,13.3052,4.60074,2470.39,2022-9-29T05:19:26Z
2022-09-29T03:20:36Z,42.805,6.029,13.3042,4.60074,2470.404,2022-9-29T05:22:30Z
2022-09-29T03:23:39Z,42.805,6.029,13.3036,4.60074,2470.39,2022-9-29T05:25:33Z
2022-09-29T03:26:42Z,42.805,6.029,13.3039,4.60075,2470.39,2022-9-29T05:28:36Z
2022-09-29T03:29:45Z,42.805,6.029,13.3055,4.60074,2470.366,2022-9-29T05:31:39Z
2022-09-29T03:32:48Z,42.805,6.029,13.3036,4.60073,2470.343,2022-9-29T05:34:42Z
2022-09-29T03:35:52Z,42.805,6.029,13.3057,4.60064,2470.366,2022-9-29T05:37:45Z
2022-09-29T03:38:55Z,42.805,6.029,13.3050,4.60081,2470.39,2022-9-29T05:40:48Z
2022-09-29T03:41:58Z,42.805,6.029,13.3049,4.60072,2470.366,2022-9-29T05:43:51Z
2022-09-29T03:45:01Z,42.805,6.029,13.3046,4.60072,2470.376,2022-9-29T05:46:55Z
2022-09-29T03:48:04Z,42.805,6.029,13.3042,4.60081,2470.38,2022-9-29T05:49:58Z
2022-09-29T03:51:07Z,42.805,6.029,13.3048,4.60084,2470.38,2022-9-29T05:53:01Z
2022-09-29T03:54:10Z,42.805,6.029,13.3043,4.60077,2470.366,2022-9-29T05:56:04Z
2022-09-29T03:57:13Z,42.805,6.029,13.3039,4.60072,2470.366,2022-9-29T05:59:07Z
2022-09-29T04:00:16Z,42.805,6.029,13.3044,4.60080,2470.39,2022-9-29T06:02:10Z
2022-09-29T04:03:20Z,42.805,6.029,13.3048,4.60084,2470.38,2022-9-29T06:05:13Z
2022-09-29T04:06:23Z,42.805,6.029,13.3040,4.60077,2470.366,2022-9-29T06:08:16Z
2022-09-29T04:09:26Z,42.805,6.029,13.3036,4.60070,2470.357,2022-9-29T06:11:19Z
2022-09-29T04:12:29Z,42.805,6.029,13.3044,4.60081,2470.404,2022-9-29T06:14:23Z
2022-09-29T04:15:32Z,42.805,6.029,13.3035,4.60082,2470.366,2022-9-29T06:17:26Z
2022-09-29T04:18:35Z,42.805,6.029,13.3054,4.60079,2470.427,2022-9-29T06:20:29Z
2022-09-29T04:21:38Z,42.805,6.029,13.3037,4.60084,2470.366,2022-9-29T06:23:32Z
2022-09-29T04:24:41Z,42.805,6.029,13.3051,4.60084,2470.366,2022-9-29T06:26:35Z
2022-09-29T04:27:45Z,42.805,6.029,13.3036,4.60076,2470.366,2022-9-29T06:29:38Z
2022-09-29T04:30:48Z,42.805,6.029,13.3039,4.60085,2470.366,2022-9-29T06:32:41Z
2022-09-29T04:33:51Z,42.805,6.029,13.3064,4.60081,2470.366,2022-9-29T06:35:44Z
2022-09-29T04:36:54Z,42.805,6.029,13.3048,4.60078,2470.404,2022-9-29T06:38:48Z
2022-09-29T04:39:57Z,42.805,6.029,13.3045,4.60084,2470.366,2022-9-29T06:41:51Z
2022-09-29T04:43:00Z,42.805,6.029,13.3047,4.60079,2470.38,2022-9-29T06:44:54Z
2022-09-29T04:46:03Z,42.805,6.029,13.3046,4.60077,2470.404,2022-9-29T06:47:57Z
2022-09-29T04:49:06Z,42.805,6.029,13.3037,4.60079,2470.38,2022-9-29T06:51:00Z
2022-09-29T04:52:10Z,42.805,6.029,13.3051,4.60079,2470.39,2022-9-29T06:54:03Z
2022-09-29T04:55:13Z,42.805,6.029,13.3054,4.60084,2470.404,2022-9-29T06:57:06Z
2022-09-29T04:58:16Z,42.805,6.029,13.3056,4.60085,2470.38,2022-9-29T07:00:09Z
2022-09-29T05:01:19Z,42.805,6.029,13.3067,4.60088,2470.404,2022-9-29T07:03:13Z
2022-09-29T05:04:22Z,42.805,6.029,13.3078,4.60076,2470.413,2022-9-29T07:06:16Z
2022-09-29T05:07:25Z,42.805,6.029,13.3054,4.60079,2470.39,2022-9-29T07:09:19Z
2022-09-29T05:10:28Z,42.805,6.029,13.3065,4.60090,2470.39,2022-9-29T07:12:22Z
2022-09-29T05:13:31Z,42.805,6.029,13.3038,4.60089,2470.404,2022-9-29T07:15:25Z
2022-09-29T05:16:35Z,42.805,6.029,13.3049,4.60090,2470.38,2022-9-29T07:18:28Z
2022-09-29T05:19:38Z,42.805,6.029,13.3060,4.60079,2470.39,2022-9-29T07:21:31Z
2022-09-29T05:22:41Z,42.805,6.029,13.3046,4.60089,2470.39,2022-9-29T07:24:34Z
2022-09-29T05:25:44Z,42.805,6.029,13.3051,4.60074,2470.427,2022-9-29T07:27:38Z
2022-09-29T05:28:47Z,42.805,6.029,13.3052,4.60078,2470.404,2022-9-29T07:30:41Z
2022-09-29T05:31:50Z,42.805,6.029,13.3048,4.60076,2470.427,2022-9-29T07:33:44Z
2022-09-29T05:34:53Z,42.805,6.029,13.3056,4.60087,2470.45,2022-9-29T07:36:47Z
2022-09-29T05:37:56Z,42.805,6.029,13.3046,4.60079,2470.413,2022-9-29T07:39:50Z
2022-09-29T05:41:00Z,42.805,6.029,13.3063,4.60069,2470.413,2022-9-29T07:42:53Z
2022-09-29T05:44:03Z,42.805,6.029,13.3046,4.60079,2470.427,2022-9-29T07:45:56Z
2022-09-29T05:47:06Z,42.805,6.029,13.3048,4.60084,2470.413,2022-9-29T07:48:59Z
2022-09-29T05:50:09Z,42.805,6.029,13.3048,4.60075,2470.45,2022-9-29T07:52:03Z
2022-09-29T05:53:12Z,42.805,6.029,13.3054,4.60086,2470.427,2022-9-29T07:55:06Z
2022-09-29T05:56:15Z,42.805,6.029,13.3049,4.60066,2470.45,2022-9-29T07:58:09Z
2022-09-29T05:59:18Z,42.805,6.029,13.3058,4.60079,2470.45,2022-9-29T08:01:12Z
2022-09-29T06:02:21Z,42.805,6.029,13.3054,4.60076,2470.413,2022-9-29T08:04:15Z
2022-09-29T06:05:24Z,42.805,6.029,13.3046,4.60075,2470.413,2022-9-29T08:07:18Z
2022-09-29T06:08:28Z,42.805,6.029,13.3044,4.60077,2470.437,2022-9-29T08:10:21Z
2022-09-29T06:11:31Z,42.805,6.029,13.3071,4.60085,2470.45,2022-9-29T08:13:24Z
2022-09-29T06:14:34Z,42.805,6.029,13.3055,4.60082,2470.413,2022-9-29T08:16:27Z
2022-09-29T06:17:37Z,42.805,6.029,13.3054,4.60098,2470.437,2022-9-29T08:19:31Z
2022-09-29T06:20:40Z,42.805,6.029,13.3058,4.60093,2470.46,2022-9-29T08:22:34Z
2022-09-29T06:23:43Z,42.805,6.029,13.3073,4.60093,2470.45,2022-9-29T08:25:37Z
2022-09-29T06:26:46Z,42.805,6.029,13.3078,4.60084,2470.46,2022-9-29T08:28:40Z
2022-09-29T06:29:49Z,42.805,6.029,13.3061,4.60084,2470.483,2022-9-29T08:31:43Z
2022-09-29T06:32:53Z,42.805,6.029,13.3062,4.60097,2470.437,2022-9-29T08:34:46Z
2022-09-29T06:35:56Z,42.805,6.029,13.3085,4.60095,2470.437,2022-9-29T08:37:49Z
2022-09-29T06:38:59Z,42.805,6.029,13.3069,4.60084,2470.45,2022-9-29T08:40:52Z
2022-09-29T06:42:02Z,42.805,6.029,13.3086,4.60084,2470.474,2022-9-29T08:43:56Z
2022-09-29T06:45:05Z,42.805,6.029,13.3059,4.60078,2470.483,2022-9-29T08:46:59Z
2022-09-29T06:48:08Z,42.805,6.029,13.3057,4.60094,2470.483,2022-9-29T08:50:02Z
2022-09-29T06:51:11Z,42.805,6.029,13.3069,4.60098,2470.497,2022-9-29T08:53:05Z
2022-09-29T06:54:14Z,42.805,6.029,13.3067,4.60094,2470.483,2022-9-29T08:56:08Z
2022-09-29T06:57:18Z,42.805,6.029,13.3067,4.60077,2470.483,2022-9-29T08:59:11Z
2022-09-29T07:00:21Z,42.805,6.029,13.3057,4.60094,2470.474,2022-9-29T09:02:14Z
2022-09-29T07:03:24Z,42.805,6.029,13.3057,4.60094,2470.46,2022-9-29T09:05:17Z
2022-09-29T07:06:27Z,42.805,6.029,13.3073,4.60078,2470.53,2022-9-29T09:08:21Z
2022-09-29T07:09:30Z,42.805,6.029,13.3061,4.60097,2470.52,2022-9-29T09:11:24Z
2022-09-29T07:12:33Z,42.805,6.029,13.3056,4.60100,2470.497,2022-9-29T09:14:27Z
2022-09-29T07:15:36Z,42.805,6.029,13.3054,4.60087,2470.52,2022-9-29T09:17:30Z
2022-09-29T07:18:39Z,42.805,6.029,13.3055,4.60087,2470.507,2022-9-29T09:20:33Z
2022-09-29T07:21:43Z,42.805,6.029,13.3064,4.60097,2470.483,2022-9-29T09:23:36Z
2022-09-29T07:24:46Z,42.805,6.029,13.3061,4.60082,2470.483,2022-9-29T09:26:39Z
2022-09-29T07:27:49Z,42.805,6.029,13.3061,4.60099,2470.507,2022-9-29T09:29:42Z
2022-09-29T07:30:52Z,42.805,6.029,13.3089,4.60090,2470.497,2022-9-29T09:32:46Z
2022-09-29T07:33:55Z,42.805,6.029,13.3078,4.60079,2470.544,2022-9-29T09:35:49Z
2022-09-29T07:36:58Z,42.805,6.029,13.3077,4.60120,2470.52,2022-9-29T09:38:52Z
2022-09-29T07:40:01Z,42.805,6.029,13.3076,4.60089,2470.544,2022-9-29T09:41:55Z
2022-09-29T07:43:04Z,42.805,6.029,13.3064,4.60081,2470.507,2022-9-29T09:44:58Z
2022-09-29T07:46:08Z,42.805,6.029,13.3058,4.60079,2470.507,2022-9-29T09:48:01Z
2022-09-29T07:49:11Z,42.805,6.029,13.3067,4.60087,2470.553,2022-9-29T09:51:04Z
2022-09-29T07:52:14Z,42.805,6.029,13.3069,4.60076,2470.544,2022-9-29T09:54:07Z
2022-09-29T07:55:17Z,42.805,6.029,13.3057,4.60079,2470.53,2022-9-29T09:57:10Z
2022-09-29T07:58:20Z,42.805,6.029,13.3045,4.60088,2470.553,2022-9-29T10:00:14Z
2022-09-29T08:01:23Z,42.805,6.029,13.3067,4.60099,2470.544,2022-9-29T10:03:17Z
2022-09-29T08:04:26Z,42.805,6.029,13.3067,4.60095,2470.553,2022-9-29T10:06:20Z
2022-09-29T08:07:29Z,42.805,6.029,13.3080,4.60088,2470.577,2022-9-29T10:09:23Z
2022-09-29T08:10:32Z,42.805,6.029,13.3079,4.60090,2470.567,2022-9-29T10:12:26Z
2022-09-29T08:13:36Z,42.805,6.029,13.3072,4.60078,2470.577,2022-9-29T10:15:29Z
2022-09-29T08:16:39Z,42.805,6.029,13.3073,4.60082,2470.553,2022-9-29T10:18:32Z
2022-09-29T08:19:42Z,42.805,6.029,13.3070,4.60095,2470.6,2022-9-29T10:21:36Z
2022-09-29T08:22:45Z,42.805,6.029,13.3078,4.60097,2470.567,2022-9-29T10:24:39Z
2022-09-29T08:25:48Z,42.805,6.029,13.3086,4.60087,2470.544,2022-9-29T10:27:42Z
2022-09-29T08:28:51Z,42.805,6.029,13.3058,4.60113,2470.591,2022-9-29T10:30:45Z
2022-09-29T08:31:54Z,42.805,6.029,13.3094,4.60099,2470.553,2022-9-29T10:33:48Z
2022-09-29T08:34:58Z,42.805,6.029,13.3069,4.60104,2470.567,2022-9-29T10:36:51Z
2022-09-29T08:38:01Z,42.805,6.029,13.3070,4.60087,2470.567,2022-9-29T10:39:54Z
2022-09-29T08:41:04Z,42.805,6.029,13.3079,4.60073,2470.591,2022-9-29T10:42:57Z
2022-09-29T08:44:07Z,42.805,6.029,13.3077,4.60068,2470.591,2022-9-29T10:46:01Z
2022-09-29T08:47:10Z,42.805,6.029,13.3081,4.60079,2470.577,2022-9-29T10:49:04Z
2022-09-29T08:50:13Z,42.805,6.029,13.3058,4.60098,2470.591,2022-9-29T10:52:07Z
2022-09-29T08:53:16Z,42.805,6.029,13.3058,4.60073,2470.567,2022-9-29T10:55:10Z
2022-09-29T08:56:19Z,42.805,6.029,13.3074,4.60080,2470.6,2022-9-29T10:58:13Z
2022-09-29T08:59:22Z,42.805,6.029,13.3076,4.60096,2470.614,2022-9-29T11:01:16Z
2022-09-29T09:02:26Z,42.805,6.029,13.3056,4.60077,2470.577,2022-9-29T11:04:19Z
2022-09-29T09:05:29Z,42.805,6.029,13.3064,4.60084,2470.577,2022-9-29T11:07:22Z
2022-09-29T09:08:32Z,42.805,6.029,13.3059,4.60077,2470.544,2022-9-29T11:10:26Z
2022-09-29T09:11:35Z,42.805,6.029,13.3048,4.60068,2470.6,2022-9-29T11:13:29Z
2022-09-29T09:14:38Z,42.805,6.029,13.3044,4.60092,2470.577,2022-9-29T11:16:32Z
2022-09-29T09:17:41Z,42.805,6.029,13.3043,4.60082,2470.614,2022-9-29T11:19:35Z
2022-09-29T09:20:44Z,42.805,6.029,13.3051,4.60084,2470.577,2022-9-29T11:22:38Z
2022-09-29T09:23:48Z,42.805,6.029,13.3056,4.60081,2470.614,2022-9-29T11:25:41Z
2022-09-29T09:26:51Z,42.805,6.029,13.3070,4.60082,2470.591,2022-9-29T11:28:44Z
2022-09-29T09:29:54Z,42.805,6.029,13.3047,4.60095,2470.624,2022-9-29T11:31:47Z
2022-09-29T09:32:57Z,42.805,6.029,13.3063,4.60097,2470.614,2022-9-29T11:34:51Z
2022-09-29T09:36:00Z,42.805,6.029,13.3063,4.60084,2470.567,2022-9-29T11:37:54Z
2022-09-29T09:39:03Z,42.805,6.029,13.3078,4.60097,2470.637,2022-9-29T11:40:57Z
2022-09-29T09:42:06Z,42.805,6.029,13.3053,4.60085,2470.614,2022-9-29T11:44:00Z
2022-09-29T09:45:09Z,42.805,6.029,13.3076,4.60092,2470.6,2022-9-29T11:47:03Z
2022-09-29T09:48:13Z,42.805,6.029,13.3078,4.60084,2470.591,2022-9-29T11:50:06Z
2022-09-29T09:51:16Z,42.805,6.029,13.3062,4.60087,2470.567,2022-9-29T11:53:09Z
2022-09-29T09:54:19Z,42.805,6.029,13.3049,4.60105,2470.553,2022-9-29T11:56:12Z
2022-09-29T09:57:22Z,42.805,6.029,13.3055,4.60081,2470.61,2022-9-29T11:59:16Z
2022-09-29T10:00:25Z,42.805,6.029,13.3061,4.60091,2470.577,2022-9-29T12:02:19Z
2022-09-29T10:03:28Z,42.805,6.029,13.3070,4.60101,2470.591,2022-9-29T12:05:22Z
2022-09-29T10:06:31Z,42.805,6.029,13.3061,4.60106,2470.553,2022-9-29T12:08:25Z
2022-09-29T10:09:34Z,42.805,6.029,13.3070,4.60116,2470.614,2022-9-29T12:11:28Z
2022-09-29T10:12:38Z,42.805,6.029,13.3061,4.60088,2470.553,2022-9-29T12:14:31Z
2022-09-29T10:15:41Z,42.805,6.029,13.3069,4.60110,2470.591,2022-9-29T12:17:34Z
2022-09-29T10:18:44Z,42.805,6.029,13.3054,4.60097,2470.577,2022-9-29T12:20:37Z
2022-09-29T10:21:47Z,42.805,6.029,13.3068,4.60084,2470.553,2022-9-29T12:23:41Z
2022-09-29T10:24:50Z,42.805,6.029,13.3058,4.60099,2470.591,2022-9-29T12:26:44Z
2022-09-29T10:27:53Z,42.805,6.029,13.3052,4.60138,2470.577,2022-9-29T12:29:47Z
2022-09-29T10:30:56Z,42.805,6.029,13.3056,4.60135,2470.544,2022-9-29T12:32:50Z
2022-09-29T10:33:59Z,42.805,6.029,13.3063,4.60114,2470.567,2022-9-29T12:35:53Z
2022-09-29T10:37:03Z,42.805,6.029,13.3069,4.60122,2470.567,2022-9-29T12:38:56Z
2022-09-29T10:40:06Z,42.805,6.029,13.3088,4.60140,2470.567,2022-9-29T12:41:59Z
2022-09-29T10:43:09Z,42.805,6.029,13.3098,4.60123,2470.53,2022-9-29T12:45:02Z
2022-09-29T10:46:12Z,42.805,6.029,13.3105,4.60108,2470.567,2022-9-29T12:48:06Z
2022-09-29T10:49:15Z,42.805,6.029,13.3065,4.60085,2470.577,2022-9-29T12:51:09Z
2022-09-29T10:52:18Z,42.805,6.029,13.3075,4.60105,2470.591,2022-9-29T12:54:12Z
2022-09-29T10:55:21Z,42.805,6.029,13.3070,4.60126,2470.567,2022-9-29T12:57:15Z
2022-09-29T10:58:24Z,42.805,6.029,13.3090,4.60158,2470.544,2022-9-29T13:00:18Z
2022-09-29T11:01:28Z,42.805,6.029,13.3085,4.60113,2470.567,2022-9-29T13:03:21Z
2022-09-29T11:04:31Z,42.805,6.029,13.3067,4.60113,2470.553,2022-9-29T13:06:24Z
2022-09-29T11:07:34Z,42.805,6.029,13.3078,4.60133,2470.553,2022-9-29T13:09:27Z
2022-09-29T11:10:37Z,42.805,6.029,13.3073,4.60125,2470.553,2022-9-29T13:12:31Z
2022-09-29T11:13:40Z,42.805,6.029,13.3070,4.60099,2470.577,2022-9-29T13:15:34Z
2022-09-29T11:16:43Z,42.805,6.029,13.3092,4.60132,2470.53,2022-9-29T13:18:37Z
2022-09-29T11:19:46Z,42.805,6.029,13.3056,4.60127,2470.567,2022-9-29T13:21:40Z
2022-09-29T11:22:49Z,42.805,6.029,13.3091,4.60143,2470.507,2022-9-29T13:24:43Z
2022-09-29T11:25:53Z,42.805,6.029,13.3086,4.60107,2470.567,2022-9-29T13:27:46Z
2022-09-29T11:28:56Z,42.805,6.029,13.3091,4.60117,2470.591,2022-9-29T13:30:49Z
2022-09-29T11:31:59Z,42.805,6.029,13.3078,4.60113,2470.567,2022-9-29T13:33:52Z
2022-09-29T11:35:02Z,42.805,6.029,13.3060,4.60123,2470.52,2022-9-29T13:36:56Z
2022-09-29T11:38:05Z,42.805,6.029,13.3091,4.60110,2470.52,2022-9-29T13:39:59Z
2022-09-29T11:41:08Z,42.805,6.029,13.3089,4.60108,2470.53,2022-9-29T13:43:02Z
2022-09-29T11:44:11Z,42.805,6.029,13.3073,4.60104,2470.52,2022-9-29T13:46:05Z
2022-09-29T11:47:14Z,42.805,6.029,13.3076,4.60136,2470.53,2022-9-29T13:49:08Z
2022-09-29T11:50:18Z,42.805,6.029,13.3073,4.60105,2470.544,2022-9-29T13:52:11Z
2022-09-29T11:53:21Z,42.805,6.029,13.3106,4.60144,2470.52,2022-9-29T13:55:14Z
2022-09-29T11:56:24Z,42.805,6.029,13.3054,4.60142,2470.591,2022-9-29T13:58:18Z
2022-09-29T11:59:27Z,42.805,6.029,13.3062,4.60134,2470.52,2022-9-29T14:01:21Z
2022-09-29T12:02:30Z,42.805,6.029,13.3095,4.60121,2470.544,2022-9-29T14:04:24Z
2022-09-29T12:05:33Z,42.805,6.029,13.3041,4.60106,2470.52,2022-9-29T14:07:27Z
2022-09-29T12:08:36Z,42.805,6.029,13.3076,4.60110,2470.507,2022-9-29T14:10:30Z
2022-09-29T12:11:39Z,42.805,6.029,13.3045,4.60154,2470.474,2022-9-29T14:13:33Z
2022-09-29T12:14:43Z,42.805,6.029,13.3067,4.60115,2470.507,2022-9-29T14:16:36Z
2022-09-29T12:17:46Z,42.805,6.029,13.3067,4.60126,2470.52,2022-9-29T14:19:39Z
2022-09-29T12:20:49Z,42.805,6.029,13.3093,4.60126,2470.483,2022-9-29T14:22:43Z
2022-09-29T12:23:52Z,42.805,6.029,13.3076,4.60096,2470.483,2022-9-29T14:25:46Z
2022-09-29T12:26:55Z,42.805,6.029,13.3090,4.60170,2470.507,2022-9-29T14:28:49Z
2022-09-29T12:29:58Z,42.805,6.029,13.3037,4.60150,2470.52,2022-9-29T14:31:52Z
2022-09-29T12:33:01Z,42.805,6.029,13.3060,4.60131,2470.52,2022-9-29T14:34:55Z
2022-09-29T12:36:05Z,42.805,6.029,13.3073,4.60135,2470.497,2022-9-29T14:37:58Z
2022-09-29T12:39:08Z,42.805,6.029,13.3070,4.60123,2470.474,2022-9-29T14:41:01Z
2022-09-29T12:42:11Z,42.805,6.029,13.3058,4.60123,2470.483,2022-9-29T14:44:04Z
2022-09-29T12:45:14Z,42.805,6.029,13.3081,4.60185,2470.507,2022-9-29T14:47:08Z
2022-09-29T12:48:17Z,42.805,6.029,13.3077,4.60106,2470.46,2022-9-29T14:50:11Z
2022-09-29T12:51:20Z,42.805,6.029,13.3101,4.60132,2470.497,2022-9-29T14:53:14Z
2022-09-29T12:54:23Z,42.805,6.029,13.3054,4.60173,2470.52,2022-9-29T14:56:17Z
2022-09-29T12:57:26Z,42.805,6.029,13.3086,4.60142,2470.52,2022-9-29T14:59:20Z
2022-09-29T13:00:30Z,42.805,6.029,13.3079,4.60155,2470.483,2022-9-29T15:02:23Z
2022-09-29T13:03:33Z,42.805,6.029,13.3087,4.60139,2470.507,2022-9-29T15:05:26Z
2022-09-29T13:06:36Z,42.805,6.029,13.3085,4.60135,2470.507,2022-9-29T15:08:29Z
2022-09-29T13:09:39Z,42.805,6.029,13.3099,4.60152,2470.52,2022-9-29T15:11:33Z
2022-09-29T13:12:42Z,42.805,6.029,13.3074,4.60128,2470.53,2022-9-29T15:14:36Z
2022-09-29T13:15:45Z,42.805,6.029,13.3067,4.60127,2470.483,2022-9-29T15:17:39Z
2022-09-29T13:18:48Z,42.805,6.029,13.3091,4.60182,2470.497,2022-9-29T15:20:42Z
2022-09-29T13:21:51Z,42.805,6.029,13.3063,4.60163,2470.507,2022-9-29T15:23:45Z
2022-09-29T13:24:55Z,42.805,6.029,13.3050,4.60189,2470.52,2022-9-29T15:26:48Z
2022-09-29T13:27:58Z,42.805,6.029,13.3085,4.60155,2470.497,2022-9-29T15:29:51Z
2022-09-29T13:31:01Z,42.805,6.029,13.3096,4.60211,2470.483,2022-9-29T15:32:54Z
2022-09-29T13:34:04Z,42.805,6.029,13.3032,4.60156,2470.474,2022-9-29T15:35:58Z
2022-09-29T13:37:07Z,42.805,6.029,13.3074,4.60143,2470.497,2022-9-29T15:39:01Z
2022-09-29T13:40:10Z,42.805,6.029,13.3076,4.60150,2470.437,2022-9-29T15:42:04Z
2022-09-29T13:43:13Z,42.805,6.029,13.3077,4.60115,2470.46,2022-9-29T15:45:07Z
2022-09-29T13:46:16Z,42.805,6.029,13.3084,4.60114,2470.507,2022-9-29T15:48:10Z
2022-09-29T13:49:20Z,42.805,6.029,13.3061,4.60132,2470.497,2022-9-29T15:51:13Z
2022-09-29T13:52:23Z,42.805,6.029,13.3075,4.60131,2470.497,2022-9-29T15:54:16Z
2022-09-29T13:55:26Z,42.805,6.029,13.3072,4.60088,2470.483,2022-9-29T15:57:19Z
2022-09-29T13:58:29Z,42.805,6.029,13.3038,4.60109,2470.46,2022-9-29T16:00:23Z
2022-09-29T14:01:32Z,42.805,6.029,13.3058,4.60077,2470.474,2022-9-29T16:03:26Z
2022-09-29T14:04:35Z,42.805,6.029,13.3031,4.60133,2470.46,2022-9-29T16:06:29Z
2022-09-29T14:07:38Z,42.805,6.029,13.3082,4.60141,2470.46,2022-9-29T16:09:32Z
2022-09-29T14:10:41Z,42.805,6.029,13.3063,4.60134,2470.474,2022-9-29T16:12:35Z
2022-09-29T14:13:45Z,42.805,6.029,13.3048,4.60191,2470.497,2022-9-29T16:15:38Z
2022-09-29T14:16:48Z,42.805,6.029,13.3083,4.60125,2470.474,2022-9-29T16:18:41Z
2022-09-29T14:19:51Z,42.805,6.029,13.3099,4.60144,2470.483,2022-9-29T16:21:44Z
2022-09-29T14:22:54Z,42.805,6.029,13.3091,4.60170,2470.483,2022-9-29T16:24:48Z
2022-09-29T14:25:57Z,42.805,6.029,13.3067,4.60127,2470.507,2022-9-29T16:27:51Z
2022-09-29T14:29:00Z,42.805,6.029,13.3058,4.60147,2470.45,2022-9-29T16:30:54Z
2022-09-29T14:32:03Z,42.805,6.029,13.3070,4.60150,2470.437,2022-9-29T16:33:57Z
2022-09-29T14:35:06Z,42.805,6.029,13.3067,4.60117,2470.497,2022-9-29T16:37:00Z
2022-09-29T14:38:10Z,42.805,6.029,13.3084,4.60097,2470.497,2022-9-29T16:40:03Z
2022-09-29T14:41:13Z,42.805,6.029,13.3081,4.60119,2470.474,2022-9-29T16:43:06Z
2022-09-29T14:44:16Z,42.805,6.029,13.3076,4.60092,2470.46,2022-9-29T16:46:09Z
2022-09-29T14:47:19Z,42.805,6.029,13.3061,4.60082,2470.497,2022-9-29T16:49:13Z
2022-09-29T14:50:22Z,42.805,6.029,13.3069,4.60114,2470.46,2022-9-29T16:52:16Z
2022-09-29T14:53:25Z,42.805,6.029,13.3078,4.60138,2470.497,2022-9-29T16:55:19Z
2022-09-29T14:56:28Z,42.805,6.029,13.3083,4.60128,2470.483,2022-9-29T16:58:22Z
2022-09-29T14:59:31Z,42.805,6.029,13.3063,4.60104,2470.46,2022-9-29T17:01:25Z
2022-09-29T15:02:35Z,42.805,6.029,13.3078,4.60125,2470.46,2022-9-29T17:04:28Z
2022-09-29T15:05:38Z,42.805,6.029,13.3087,4.60068,2470.46,2022-9-29T17:07:31Z
2022-09-29T15:08:41Z,42.805,6.029,13.3056,4.60140,2470.437,2022-9-29T17:10:35Z
2022-09-29T15:11:44Z,42.805,6.029,13.3038,4.60131,2470.46,2022-9-29T17:13:38Z
2022-09-29T15:14:47Z,42.805,6.029,13.3070,4.60087,2470.483,2022-9-29T17:16:41Z